Wind_Speed
24 20 21 18 13 10 13 12 12 10 9 9 9 9 8 8 7 8 9 9 9 8 7 5 5 10 12 11 9 5 5 5 4 4 4 7 7 8 6 10 10 10 10
22 22 19 18 16 11 10 10 10 9 8 8 9 10 9 8 8 7 8 10 10 9 9 9 11 14 12 8 4 4 4 3 3 1 3 4 7 9 7 9 11 11 11
21 20 16 13 11 10 6 7 8 8 8 8 9 10 9 8 7 8 10 11 11 11 11 12 13 11 8 5 4 6 4 3 1 3 5 6 7 9 9 8 11 11 13
18 14 15 17 12 12 8 7 7 6 6 6 8 9 9 7 7 9 11 11 12 12 12 11 11 10 9 7 5 6 4 3 1 7 13 17 10 8 7 5 5 13 14
18 13 13 15 14 9 6 5 5 4 4 4 6 7 8 6 6 9 11 12 12 13 13 12 12 10 10 8 7 7 6 2 3 2 4 14 11 8 6 6 7 10 11
17 17 15 13 11 9 7 5 4 4 4 3 3 5 8 6 6 9 11 13 13 13 13 14 14 12 10 10 5 8 8 10 10 8 9 17 10 6 6 5 6 7 8
13 16 17 14 11 8 6 5 4 3 1 5 3 5 8 6 6 10 10 13 14 14 13 14 13 11 8 6 7 9 9 6 10 14 14 11 8 6 3 3 4 6 9
14 15 15 13 10 8 6 5 4 2 3 4 7 6 7 5 7 11 11 13 13 15 15 12 10 7 5 6 9 9 6 3 11 15 16 14 10 6 4 3 5 7 9
20 15 17 14 10 7 6 6 5 2 4 7 8 7 7 5 8 12 13 14 12 13 14 11 8 4 5 7 8 6 3 9 14 15 15 13 12 11 8 4 2 6 8
22 17 18 14 10 5 6 6 6 4 6 6 7 6 5 6 10 14 15 15 14 13 12 12 6 7 7 7 6 6 9 10 11 12 14 13 12 11 11 3 2 2 7
19 17 17 13 12 6 5 6 7 6 7 6 7 6 4 6 11 14 17 15 15 12 10 8 12 15 15 3 8 12 11 11 13 13 14 15 12 11 8 4 3 3 0
13 15 15 14 11 9 10 12 10 7 6 7 8 7 6 8 12 14 18 17 15 12 8 10 15 18 18 19 16 14 14 16 15 14 16 15 13 12 11 4 3 3 4
13 11 16 17 15 14 15 16 14 9 8 9 9 9 9 9 13 15 18 18 16 13 10 10 10 15 14 14 19 20 18 18 14 10 15 15 12 13 12 9 6 4 5
14 17 13 15 17 12 16 15 14 13 12 12 10 10 12 10 14 16 18 18 15 13 11 10 8 4 16 9 12 13 14 15 17 13 10 11 10 10 12 11 8 6 6
17 17 16 16 14 15 12 17 11 16 12 13 12 11 11 15 16 18 16 16 14 11 7 7 9 6 7 3 11 12 11 17 14 11 14 11 16 12 11 13 10 7 5
15 17 17 16 14 12 13 14 14 16 15 14 11 12 13 13 16 18 17 15 14 10 12 10 5 3 14 4 5 7 5 9 12 14 11 11 14 10 11 9 8 8 6
12 11 10 13 13 15 13 15 14 17 16 12 13 15 15 13 14 18 19 15 17 13 11 14 5 5 3 4 2 5 9 8 10 11 10 11 12 9 9 9 8 6 6
10 9 10 12 13 18 16 17 13 18 19 17 15 14 14 11 10 12 19 18 12 11 11 9 6 2 6 10 7 6 13 9 6 4 9 13 13 10 6 8 10 6 5
5 8 7 11 13 16 17 17 16 18 21 19 17 16 15 12 11 14 15 14 12 12 10 11 9 6 4 6 4 6 8 7 8 9 11 11 11 5 6 8 11 9 5
2 3 5 9 13 15 16 18 17 17 18 21 23 22 18 14 15 15 15 15 12 14 11 7 5 1 7 8 8 4 5 7 9 5 7 6 11 13 8 5 8 9 7
4 2 4 6 8 12 11 12 11 10 10 14 25 23 18 17 16 15 18 18 11 12 13 9 4 3 4 4 5 5 6 9 7 6 8 9 8 14 17 5 10 9 6
3 4 4 5 4 8 11 11 11 11 14 17 20 19 19 18 16 16 18 19 10 12 10 7 7 5 8 5 6 6 3 4 8 2 6 6 6 8 15 11 18 14 1
8 3 6 7 7 6 10 14 17 18 23 17 18 18 16 15 14 15 15 12 9 9 10 9 7 6 10 7 6 4 9 12 7 7 3 2 4 6 9 9 14 14 16
4 7 4 7 8 6 9 14 19 16 18 16 15 16 14 13 11 14 11 10 7 13 14 10 7 9 8 8 6 3 2 11 13 9 10 7 6 4 7 6 9 13 15
10 4 7 5 6 7 8 9 18 20 19 20 17 17 15 18 16 13 10 9 7 8 12 12 11 7 9 9 8 10 9 8 9 11 13 13 11 7 6 8 6 8 10
13 11 6 6 6 7 7 8 13 18 20 20 18 17 16 17 19 14 9 10 11 10 9 9 7 7 7 9 8 11 11 8 6 8 13 16 16 13 14 13 8 3 4
Wind_Direction
158 157 149 143 139 143 138 131 121 120 116 115 110 109 104 98 94 97 109 113 118 120 114 113 136 148 140 142 141 159 160 169 199 195 217 225 203 185 176 183 193 185 179
166 162 155 152 139 142 140 133 125 119 123 121 114 111 111 105 106 111 116 113 116 115 103 98 108 126 137 133 144 115 91 112 103 150 194 227 206 181 189 181 194 189 194
174 173 177 174 166 167 168 134 122 121 123 121 109 108 106 102 113 122 117 115 109 112 115 112 111 118 125 121 129 96 98 84 109 222 233 189 209 193 186 185 197 195 193
178 193 208 192 190 166 172 159 141 128 121 122 103 102 98 102 113 117 117 115 111 111 109 108 109 111 114 110 98 89 72 83 236 270 253 232 220 196 183 191 203 198 194
168 187 179 172 172 161 163 166 156 137 119 121 104 103 105 102 109 109 115 111 113 111 109 112 107 106 108 104 95 91 62 217 58 256 163 171 179 188 186 176 172 190 199
172 172 173 168 165 171 173 175 166 137 106 178 103 120 114 105 118 116 119 117 120 117 114 113 110 103 94 88 60 63 36 72 78 96 108 186 181 187 185 178 188 192 200
182 183 177 168 173 170 177 176 181 130 61 127 124 137 114 112 125 117 120 120 119 118 115 116 119 113 103 87 42 10 35 93 73 78 103 132 151 156 164 187 194 213 218
179 178 173 180 179 172 178 181 171 139 96 130 138 134 121 125 129 120 124 120 119 118 120 120 129 116 84 27 31 12 348 38 102 88 88 104 103 112 141 191 200 212 215
179 192 186 189 185 180 193 180 181 131 113 127 133 139 135 134 135 126 125 119 123 120 124 125 143 141 58 13 16 42 138 89 99 94 92 92 90 92 121 145 194 233 228
188 192 194 187 181 215 210 202 193 167 163 139 138 140 141 135 138 132 127 121 121 124 129 131 113 42 13 9 33 120 120 113 96 77 75 87 87 91 93 128 25 81 214
194 196 202 193 182 180 190 204 209 205 171 153 147 131 128 142 143 140 125 124 123 125 116 97 65 35 54 143 50 109 97 91 101 93 80 70 65 76 85 88 59 69 107
195 204 220 197 188 199 196 196 198 210 188 171 149 140 141 149 153 142 133 131 131 127 115 71 61 68 49 63 73 118 91 66 75 82 77 71 68 65 64 51 44 24 28
182 187 207 230 204 189 193 202 212 209 186 169 155 150 155 156 161 155 141 138 138 130 109 90 86 83 57 52 86 87 72 54 40 71 80 69 61 72 67 57 52 31 26
195 197 186 183 194 201 194 200 211 210 184 169 168 168 169 169 175 166 152 143 139 139 110 110 96 66 73 46 70 61 72 70 39 34 56 95 94 81 74 63 62 38 20
194 192 196 202 191 194 195 205 208 209 181 174 183 186 190 180 184 171 161 150 140 140 134 89 112 101 94 81 86 77 62 58 49 37 40 21 51 43 60 65 67 56 18
200 195 203 199 201 204 194 205 214 207 197 194 189 186 178 179 187 174 171 163 148 142 134 129 113 313 318 77 42 24 90 53 48 52 37 62 44 48 45 48 65 65 38
204 203 205 199 198 190 201 202 212 204 202 198 210 190 187 191 191 187 174 174 172 175 153 160 181 172 324 45 124 358 350 39 19 26 54 57 69 54 52 61 75 84 78
217 223 232 212 206 209 214 201 213 206 208 211 197 204 195 194 190 184 183 180 170 175 177 174 213 287 329 358 37 338 348 41 17 18 52 49 42 45 32 35 58 64 95
195 197 213 211 209 210 213 213 217 210 212 210 215 201 206 187 187 187 192 185 177 197 191 202 216 236 263 290 1 337 349 2 357 358 55 43 42 359 25 44 39 39 45
181 167 175 189 198 213 214 213 215 223 224 224 222 213 198 190 193 185 183 197 203 201 201 217 258 193 212 251 213 246 265 306 329 353 27 28 55 34 19 17 19 26 6
254 155 157 169 191 216 222 224 223 238 233 205 189 192 190 196 192 183 190 196 199 210 209 219 195 220 235 232 240 227 238 259 262 284 18 4 9 29 34 2 8 332 346
1 224 175 154 191 226 229 211 207 201 181 163 174 184 186 198 200 193 203 210 225 221 217 219 191 171 227 221 215 194 194 195 243 307 1 1 347 19 48 68 4 354 304
10 301 195 199 209 227 229 221 206 192 186 182 192 194 194 201 212 210 216 225 227 214 222 231 214 214 231 240 231 191 178 163 198 225 234 14 47 47 67 30 15 40 14
24 341 305 213 215 230 246 235 219 214 214 214 196 195 197 198 217 223 213 219 211 205 212 226 239 224 233 245 242 256 193 209 206 226 236 249 274 301 353 1 9 24 20
308 286 326 278 234 238 267 249 219 214 212 216 209 207 216 220 217 209 204 219 218 217 227 234 236 256 260 257 242 268 271 309 225 230 241 264 266 280 294 312 329 16 26
302 298 286 307 264 246 261 256 213 209 212 219 218 212 214 200 203 205 203 217 224 228 215 230 248 266 255 254 261 255 259 273 274 249 237 248 270 268 266 275 291 282 41
Height
3191 3194 3196 3198 3201 3203 3202 3203 3202 3204 3204 3204 3205 3206 3206 3206 3207 3208 3208 3208 3210 3211 3211 3212 3212 3212 3213 3213 3213 3214 3215 3215 3214 3215 3216 3215 3215 3214 3216 3217 3217 3218 3218
3193 3195 3197 3198 3198 3202 3203 3204 3204 3205 3206 3206 3206 3207 3208 3208 3209 3210 3209 3209 3211 3212 3212 3213 3212 3213 3214 3215 3214 3214 3215 3214 3214 3215 3214 3215 3215 3215 3216 3216 3218 3218 3218
3194 3196 3196 3198 3199 3202 3205 3204 3205 3206 3207 3208 3208 3208 3209 3210 3211 3212 3211 3212 3212 3212 3214 3215 3215 3215 3215 3216 3215 3216 3216 3216 3215 3214 3214 3214 3215 3216 3216 3216 3218 3219 3219
3195 3196 3197 3199 3202 3203 3205 3206 3207 3208 3208 3209 3209 3209 3210 3211 3212 3213 3214 3214 3214 3214 3215 3216 3216 3216 3216 3216 3216 3217 3217 3217 3215 3211 3211 3212 3215 3217 3217 3217 3218 3219 3220
3194 3196 3198 3200 3203 3205 3207 3208 3208 3208 3209 3210 3210 3211 3211 3212 3214 3215 3215 3216 3216 3216 3216 3217 3218 3218 3218 3216 3216 3217 3217 3216 3214 3211 3210 3212 3214 3217 3218 3217 3218 3220 3221
3194 3196 3198 3200 3204 3205 3208 3208 3209 3209 3210 3210 3211 3212 3212 3213 3215 3215 3216 3217 3218 3218 3218 3218 3219 3220 3219 3218 3216 3217 3218 3218 3216 3213 3209 3212 3214 3216 3218 3218 3219 3220 3221
3194 3196 3199 3202 3204 3206 3208 3209 3210 3210 3210 3211 3212 3213 3213 3214 3216 3215 3217 3218 3219 3220 3220 3220 3221 3220 3219 3219 3219 3217 3218 3219 3218 3216 3214 3214 3216 3217 3218 3219 3219 3219 3220
3195 3197 3199 3202 3204 3206 3207 3209 3210 3211 3211 3211 3213 3214 3214 3215 3217 3216 3217 3219 3220 3221 3222 3221 3222 3221 3221 3222 3223 3218 3219 3219 3219 3218 3218 3217 3216 3215 3217 3219 3219 3219 3219
3193 3196 3199 3201 3204 3207 3208 3209 3210 3211 3211 3212 3213 3215 3215 3217 3217 3217 3218 3220 3221 3221 3222 3223 3222 3222 3224 3224 3223 3220 3219 3219 3220 3218 3218 3218 3216 3215 3215 3217 3219 3218 3218
3193 3195 3199 3201 3204 3206 3208 3210 3210 3210 3211 3212 3214 3216 3217 3219 3218 3218 3219 3222 3222 3222 3223 3223 3225 3227 3227 3226 3223 3221 3221 3221 3222 3221 3219 3219 3217 3215 3215 3218 3218 3216 3216
3192 3196 3198 3201 3204 3206 3207 3209 3209 3210 3211 3212 3215 3217 3220 3220 3218 3219 3221 3223 3224 3224 3225 3227 3230 3230 3226 3225 3223 3224 3227 3225 3222 3221 3219 3218 3218 3216 3216 3216 3217 3217 3215
3193 3195 3197 3201 3203 3204 3205 3207 3208 3209 3211 3213 3215 3218 3221 3221 3219 3221 3222 3223 3225 3226 3227 3229 3231 3232 3230 3229 3228 3226 3228 3226 3224 3222 3220 3219 3218 3217 3216 3216 3215 3216 3215
3193 3193 3196 3199 3202 3200 3203 3205 3206 3207 3211 3213 3215 3218 3221 3221 3220 3221 3221 3224 3226 3227 3229 3230 3232 3233 3233 3232 3230 3229 3229 3228 3225 3223 3222 3221 3221 3218 3218 3216 3215 3215 3215
3192 3193 3195 3197 3200 3199 3201 3203 3204 3206 3210 3212 3214 3218 3220 3221 3221 3222 3223 3224 3226 3228 3230 3232 3233 3230 3231 3232 3230 3228 3228 3227 3224 3224 3220 3221 3219 3218 3216 3214 3213 3214 3215
3190 3192 3194 3197 3199 3200 3201 3203 3204 3206 3208 3211 3214 3217 3219 3221 3222 3222 3223 3225 3227 3230 3232 3233 3233 3231 3231 3228 3228 3227 3226 3226 3224 3223 3223 3220 3218 3218 3217 3214 3213 3213 3214
3187 3191 3193 3196 3198 3199 3201 3203 3203 3206 3208 3210 3213 3217 3219 3220 3222 3223 3223 3226 3227 3231 3231 3233 3232 3230 3222 3229 3229 3227 3225 3226 3224 3224 3224 3222 3218 3220 3218 3216 3215 3215 3215
3187 3188 3191 3194 3195 3197 3200 3201 3203 3205 3207 3210 3213 3216 3218 3219 3221 3223 3224 3225 3226 3228 3230 3231 3231 3232 3230 3231 3229 3228 3226 3226 3225 3225 3224 3222 3219 3221 3220 3217 3215 3214 3214
3186 3187 3189 3190 3193 3196 3198 3199 3201 3203 3206 3208 3212 3215 3218 3219 3220 3222 3224 3224 3226 3229 3230 3231 3230 3230 3230 3229 3227 3226 3227 3227 3227 3226 3223 3222 3220 3221 3221 3219 3216 3215 3214
3185 3186 3188 3189 3191 3193 3195 3197 3199 3201 3204 3206 3208 3213 3216 3217 3218 3220 3224 3225 3226 3228 3230 3231 3232 3232 3231 3230 3230 3228 3226 3226 3226 3224 3221 3220 3219 3222 3222 3221 3219 3218 3217
3185 3185 3186 3188 3189 3192 3192 3194 3197 3199 3201 3203 3206 3210 3213 3215 3217 3219 3223 3223 3226 3227 3228 3231 3232 3232 3232 3233 3232 3231 3228 3228 3226 3225 3224 3223 3225 3222 3221 3220 3220 3219 3220
3184 3184 3185 3186 3188 3189 3189 3192 3195 3195 3196 3196 3201 3207 3212 3213 3216 3218 3222 3222 3224 3226 3228 3229 3231 3232 3232 3231 3231 3231 3229 3228 3227 3228 3227 3226 3225 3223 3221 3222 3223 3221 3221
3183 3183 3183 3185 3186 3187 3188 3191 3193 3195 3198 3199 3202 3206 3210 3212 3214 3217 3219 3222 3224 3226 3228 3228 3229 3231 3229 3230 3231 3231 3229 3227 3226 3228 3227 3226 3225 3226 3225 3224 3223 3219 3220
3181 3183 3184 3185 3186 3187 3187 3188 3191 3194 3196 3199 3201 3205 3208 3211 3214 3216 3219 3222 3224 3225 3226 3226 3228 3230 3229 3230 3230 3230 3229 3227 3226 3227 3227 3227 3226 3225 3225 3224 3224 3222 3220
3181 3182 3184 3185 3185 3185 3186 3187 3190 3194 3196 3199 3202 3204 3207 3209 3211 3215 3217 3220 3221 3223 3224 3226 3227 3228 3228 3227 3228 3228 3228 3228 3226 3226 3226 3226 3224 3224 3224 3224 3224 3222 3220
3179 3183 3183 3184 3184 3184 3185 3184 3187 3191 3194 3196 3200 3203 3205 3208 3210 3213 3215 3218 3219 3222 3223 3225 3226 3226 3227 3227 3226 3227 3227 3225 3225 3225 3224 3224 3223 3222 3223 3223 3224 3223 3221
3178 3180 3183 3184 3184 3184 3184 3184 3184 3188 3191 3193 3197 3201 3204 3206 3208 3211 3213 3215 3216 3218 3220 3221 3223 3224 3224 3224 3224 3224 3224 3223 3223 3223 3222 3222 3222 3220 3220 3221 3222 3221 3219